Location: Cluj-Napoca
(46.7712°N, 23.6236°E)
Time: 11:08:47
(UTC+03:00)

ISS - Pass Details

Date: 13 May 2021
Orbit: 417 x 422 km, 51.6° (Epoch: 15 May)

Event Time Altitude Azimuth Distance (km) Brightness Sun altitude
Exits shadow 01:32:07 30° 33° (NNE) 779 -1.9 -24.8°
Drops below altitude 10° 01:34:15 10° 60° (ENE) 1,505 -0.6 -24.8°
Sets 01:36:26 0° 68° (ENE) 2,372 0.4 -24.8°
